[Date Prev][Date Next][Thread Prev][Thread Next] - [Date Index][Thread Index][Author Index]
2 Line ISS Keps 8-8
- Subject: [sarex] 2 Line ISS Keps 8-8
- From: "Dave Larsen PhD" <doc@xxxxxxxxxxx>
- Date: Wed, 8 Aug 2001 08:06:36 -0700
ISS
1 25544U 98067A 01220.46851852 .00018342 00000-0 24429-3 0 3158
2 25544 51.6384 184.8945 0011689 350.4458 140.6939 15.58127849155241
----
Via the sarex mailing list at AMSAT.ORG courtesy of AMSAT-NA.
To unsubscribe, send "unsubscribe sarex" to Majordomo@amsat.org
AMSAT Home